Nassau, Bahamas

10:25 PM EDT on April 23, 2017 (GMT -0400)
Nassau

Weather History for 78073 - November, 2012

Change the Weather History Date:

Sunday, November 4, 2012

  Actual Average Record
Temperature  
Mean Temperature 72 °F -  
Max Temperature 81 °F 82 °F - ()
Min Temperature 62 °F 67 °F - ()
Cooling Degree Days 6    
Growing Degree Days 22 (Base 50)    
Moisture  
Dew Point 62 °F    
Average Humidity 73    
Maximum Humidity 94    
Minimum Humidity 52    
Precipitation  
Precipitation 0.00 in 0.07 in - ()
Sea Level Pressure  
Sea Level Pressure 30.07 in    
Wind  
Wind Speed 2 mph ()    
Max Wind Speed 9 mph    
Max Gust Speed -    
Visibility 6.9 miles    
Events      
T = Trace of Precipitation, MM = Missing Value Source: Averaged Metar Reports

Daily Weather History Graph

Daily Weather History Graph

Search for Another Location

Airport or City:

Trip Planner

Search our weather history database for the weather conditions in past years. The results will help you decide how hot, cold, wet, or windy it might be!

Date:

Astronomy

Nov. 04, 2012 Rise Set
Actual Time 6:19 AM EST 5:27 PM EST
Civil Twilight 5:55 AM EST 5:50 PM EST
Nautical Twilight 5:28 AM EST 6:17 PM EST
Astronomical Twilight 5:01 AM EST 6:44 PM EST
Moon 10:07 PM EST (11/4) 10:55 AM EST (11/4)
Length of Visible Light 11h 54m
Length of Day
11h 07m
Waning Gibbous, 72% of the Moon is Illuminated
Nov 4
Waning Gibbous
Nov 6
Last Quarter
Nov 13
New
Nov 20
First Quarter
Nov 28
Full

Hourly Weather History & Observations

Time (EST) Temp. Heat Index Dew Point Humidity Pressure Visibility Wind Dir Wind Speed Gust Speed Precip Events Conditions
12:00 AM 66.2 °F - 59.0 °F 78% 30.11 in - Calm Calm - N/A   Clear
1:00 AM 66.2 °F - 59.0 °F 78% 30.10 in - Calm Calm - N/A   Clear
1:00 AM 64 °F - 61 °F 88% 30.10 in 9 mi Calm Calm - -  
1:00 AM 64.4 °F - 60.8 °F 88% 30.09 in - Calm Calm - N/A   Clear
3:00 AM 64.4 °F - 59.0 °F 83% 30.08 in - Calm Calm - N/A   Clear
4:00 AM 64 °F - 59 °F 79% 30.07 in 9 mi Calm Calm - -   Scattered Clouds
4:00 AM 64.4 °F - 59.0 °F 83% 30.07 in 6.2 mi Calm Calm - N/A   Partly Cloudy
5:00 AM 64.4 °F - 57.2 °F 77% 30.08 in 6.2 mi Calm Calm - N/A   Partly Cloudy
6:00 AM 64.4 °F - 59.0 °F 83% 30.10 in 6.2 mi Calm Calm - N/A   Partly Cloudy
7:00 AM 62 °F - 61 °F 94% 30.10 in 9 mi Calm Calm - -   Scattered Clouds
7:00 AM 62.6 °F - 60.8 °F 94% 30.10 in 6.2 mi Calm Calm - N/A   Partly Cloudy
8:00 AM 73.4 °F - 64.4 °F 73% 30.11 in 6.2 mi Calm Calm - N/A   Unknown
9:00 AM 75.2 °F - 62.6 °F 65% 30.11 in 6.2 mi NE 3.5 mph - N/A   Partly Cloudy
10:00 AM 78.8 °F - 64.4 °F 61% 30.11 in 6.2 mi NE 5.8 mph - N/A   Scattered Clouds
11:00 AM 77.0 °F - 62.6 °F 61% 30.10 in 6.2 mi NE 5.8 mph - N/A   Partly Cloudy
12:00 PM 77.0 °F - 60.8 °F 57% 30.08 in 6.2 mi NE 8.1 mph - N/A   Partly Cloudy
1:00 PM 80 °F - 65 °F 52% 30.05 in 9 mi NNE 6.9 mph - -   Scattered Clouds
1:00 PM 80.6 °F 82.7 °F 66.2 °F 61% 30.05 in 6.2 mi NNE 6.9 mph - N/A   Partly Cloudy
2:00 PM 77.0 °F - 60.8 °F 57% 30.04 in 6.2 mi East 5.8 mph - N/A   Partly Cloudy
3:00 PM 77.0 °F - 60.8 °F 57% 30.02 in 6.2 mi East 9.2 mph - N/A   Partly Cloudy
4:00 PM 79 °F - 71 °F 69% 30.02 in 9 mi ESE 4.6 mph - -   Scattered Clouds
4:00 PM 78.8 °F - 69.8 °F 74% 30.02 in 6.2 mi ESE 4.6 mph - N/A   Partly Cloudy
5:00 PM 75.2 °F - 60.8 °F 61% 30.02 in 6.2 mi ENE 3.5 mph - N/A   Partly Cloudy
6:00 PM 73.4 °F - 62.6 °F 69% 30.03 in 6.2 mi ENE 3.5 mph - N/A   Partly Cloudy
7:00 PM 72 °F - 65 °F 74% 30.04 in 8 mi Calm Calm - -   Scattered Clouds
7:00 PM 71.6 °F - 66.2 °F 83% 30.03 in 6.2 mi Calm Calm - N/A   Partly Cloudy
8:00 PM 71.6 °F - 62.6 °F 73% 30.04 in 6.2 mi Calm Calm - N/A   Partly Cloudy
9:00 PM 71.6 °F - 64.4 °F 78% 30.03 in 6.2 mi NE 2.3 mph - N/A   Partly Cloudy
10:00 PM 69 °F - 64 °F 77% 30.04 in 8 mi Calm Calm - -   Scattered Clouds
10:00 PM - - - N/A% - 6.2 mi Calm Calm - N/A   Partly Cloudy